Location: Albany
(35.0170°S, 117.8920°E)
Time: 08:52:07
(UTC+08:00)

S-56A Canister/Altair - Pass Details

Date: 27 January 2021
Orbit: 632 x 2501 km, 38.9° (Epoch: 25 February)

Event Time Altitude Azimuth Distance (km) Brightness Sun altitude
Rises 10:01:21 0° 350° (N) 4,686 11.6 54.9°
Reaches altitude 10° 10:05:00 10° 4° (N) 4,000 11.5 55.6°
Maximum altitude 10:13:11 24° 52° (NE) 3,547 12.0 57.2°
Drops below altitude 10° 10:23:13 10° 98° (E) 5,022 12.2 59.1°
Sets 10:28:29 0° 109° (ESE) 6,158 12.4 60.0°
